Location: Bednik
(45.3500°N, 16.3833°E)
Time: 21:52:48
(UTC+00:00)

Cosmos 1536 - Pass Details

Date: 08 August 2020
Orbit: 541 x 557 km, 82.5° (Epoch: 21 September)

Event Time Altitude Azimuth Distance (km) Brightness Sun altitude
Exits shadow 22:34:24 31° 321° (NW) 979 4.5 -28.6°
Drops below altitude 10° 22:37:01 10° 353° (N) 1,820 6.4 -28.6°
Sets 22:39:18 0° 2° (N) 2,716 7.6 -28.7°
